Skip Page Navigation
NASA JPL Caltech
NASA Logo - Jet Propulsion Laboratory + View the NASA Portal
+ Center for Near-Earth Object Studies
JPL Home Earth Solar System Stars & Galaxies Technology
JPL Solar System Dynamics
BODIES ORBITS EPHEMERIDES TOOLS PHYSICAL DATA DISCOVERY FAQ SITE MAP
JPL Small-Body Database Browser
Search: [ help ]  
67538 (2000 SC4)
Classification: Main-belt Asteroid          SPK-ID: 2067538
Ephemeris | Orbit Diagram | Orbital Elements | Mission Design | Physical Parameters | Discovery Circumstances ]

[ hide orbit diagram ]

For accurate long-term ephemerides, please instead use our Horizons system.This orbit viewer was implemented using two-body methods, and hence should not be used for determining accurate long-term trajectories (over several years or decades) or planetary encounter circumstances.


Orbital Elements at Epoch 2459396.5 (2021-Jul-01.0) TDB
Reference: JPL 24 (heliocentric ecliptic J2000)
 Element Value Uncertainty (1-sigma)   Units 
e .2346776242662633 3.3726e-08  
a 2.271992091509335 7.7821e-09 au
q 1.738806385122186 7.9384e-08 au
i 5.950926967125015 3.2208e-06 deg
node 129.4996773380251 3.0147e-05 deg
peri 210.2954184097656 3.0756e-05 deg
M 40.81839739629195 6.0808e-06 deg
tp 2459254.671960836949
(2021-Feb-09.17196084)
2.091e-05 TDB
period 1250.859841531566
3.42
6.4267e-06
1.76e-08
d
yr
n .2878020286902905 1.4787e-09 deg/d
Q 2.805177797896484 9.6083e-09 au
  Orbit Determination Parameters
   # obs. used (total)      1127  
   data-arc span      8826 days (24.16 yr)  
   first obs. used      1996-05-13  
   last obs. used      2020-07-12  
   planetary ephem.      DE441  
   SB-pert. ephem.      SB441-N16  
   condition code      0  
   norm. resid. RMS      .53199  
   source      ORB  
   producer      Otto Matic  
   solution date      2021-Jul-09 10:44:27  

Additional Information
 Earth MOID = .731964 au 
 Jupiter MOID = 2.59242 au 
 T_jup = 3.568 
[ show covariance matrix ]

Ephemeris | Orbit Diagram | Orbital Elements | Mission Design | Physical Parameters | Discovery Circumstances ]

Physical Parameter Table
Parameter Symbol Value Units Sigma Reference Notes
absolute magnitude H 15.91   n/a E2021B10  

67538 (2000 SC4)          Discovered 2000-Sep-21 by NEAT at Haleakala
Reference: 20030910/Numbers.arcLast Updated: 2004-04-19
Ephemeris | Orbit Diagram | Orbital Elements | Mission Design | Physical Parameters | Discovery Circumstances ]
ABOUT SSD CREDITS/AWARDS PRIVACY/COPYRIGHT GLOSSARY LINKS
FirstGov 2021-Jul-28 19:25 UT
(server date/time)  
NASA Home Page
Site Manager:   Ryan S. Park
Webmaster  Alan B. Chamberlin